Location: Roland
(31.1349°N, 85.4372°W)
Time: 00:56:31
(UTC+00:00)

S-56A Canister/Altair - Pass Details

Date: 28 April 2021
Orbit: 632 x 2500 km, 38.9° (Epoch: 06 May)

Event Time Altitude Azimuth Distance (km) Brightness Sun altitude
Rises 01:19:59 0° 235° (SW) 6,051 12.5 -13.1°
Reaches altitude 10° 01:24:12 10° 235° (SW) 4,903 12.0 -13.9°
Maximum altitude 01:37:38 79° 151° (SSE) 1,839 9.3 -16.4°
Drops below altitude 10° 01:46:42 10° 66° (ENE) 3,421 10.5 -18.1°
Enters shadow 01:48:15 - 66° (ENE) 3,898 10.8 -18.4°
